Reflectivity
14 14 10 10 13 10 -17 -20 12 4 -20 -17 -20 -20 -20 -20 -20 -20 -20 -20 -20 -20 -20 -20 -20 -20 -20 -20 -20 -20 -20 1 6 29 -16 -20 -20 -20 -20 -20 -20 -20 -20 -20 -20
14 15 14 13 14 11 13 8 -20 -5 13 -20 -20 -20 -20 -20 -20 -20 -20 -20 -20 -20 -20 -20 -20 -20 -20 -20 -20 -20 -20 -12 26 29 8 -20 -20 -20 -20 -20 -20 -20 -20 -20 -20
14 17 13 13 15 10 8 -17 -20 -20 -3 -2 -20 -20 -20 -20 -20 -20 -20 -20 -20 -20 -20 -20 -20 -20 -20 -20 -20 -20 -20 -20 -4 25 1 -11 -20 -20 -20 -20 -20 -20 -20 -20 -20
14 13 14 14 12 14 13 11 14 11 9 -20 -20 -20 -20 -20 -20 -20 -20 -20 -20 -20 -20 -20 -20 -20 -20 -20 -20 -20 -20 -17 3 27 34 -15 -17 -16 -20 -20 -20 -20 -20 -20 -20
13 15 13 12 12 12 9 12 12 10 -10 -3 -20 -20 -20 -20 -20 -20 -20 -20 -20 -20 -20 -20 -20 -20 -20 -20 -20 -20 -20 -16 1 -1 6 -18 16 -20 -20 -20 -20 -20 -20 -20 -20
-20 -20 -20 -13 -7 -9 6 13 12 8 -15 -20 -20 -20 -20 -20 -20 -20 -20 -20 -20 -20 -20 -20 -20 -20 -20 -20 -20 -20 -20 -20 -16 21 13 34 -0 -20 -20 -20 -20 -20 -20 -20 -20
7 12 11 11 7 12 9 5 -20 -20 -20 -20 -20 -20 -20 -20 -20 -20 -20 -20 -20 -20 -20 -20 -20 -20 -20 -20 -20 -20 -20 -20 -20 -20 22 16 -20 -9 22 -20 -20 -20 -20 -20 -20
9 12 12 13 13 12 12 12 3 -20 -20 -20 -20 -20 -20 -20 -20 -20 -20 -20 -20 -20 -20 -20 -20 -20 -20 -20 -20 -20 -20 -20 -20 -20 -20 -6 -12 -12 13 -0 -12 -20 -20 -17 -20
-20 -3 13 13 13 14 -12 -20 -20 -20 -20 -20 -20 -20 -20 -20 -20 -20 -20 -20 -20 -20 -20 -20 -20 -20 -20 -20 -20 -17 -20 -20 -20 -20 -20 -17 -19 -20 -13 9 21 -20 -20 -2 -20
-20 -15 13 13 15 15 -20 -20 -20 -20 -20 -20 -20 -20 -20 -20 -20 -20 -20 -20 -20 -20 -20 -20 -20 -20 -20 -20 -20 -20 -20 -20 -20 -20 -20 -20 -18 -20 -20 20 -6 -18 21 -20 -20
-20 -20 14 16 15 10 -20 -20 -20 -20 -20 -20 -20 -20 -20 -20 -20 -20 -20 -20 -20 -20 -20 -20 -20 -20 -20 -20 -20 -20 -20 -20 -20 -20 -20 -20 -20 -20 23 -20 -14 -17 -2 7 -20
-20 -20 10 12 13 -5 -20 -20 -20 -20 -20 -20 -20 -20 -20 -20 -20 -20 -20 -20 -20 -20 -20 -20 -20 -20 -20 -20 -20 -20 -20 -20 -20 -20 -20 -20 -20 -20 -20 -20 -20 -20 -20 20 -19
-20 -20 -5 -2 -20 -20 -20 -20 -20 -20 -20 -20 -20 -20 -20 -20 -20 -20 -20 -20 -20 -20 -20 -20 -20 -20 -20 -20 -20 -20 -20 -20 -20 -20 -14 -20 -20 -20 -20 -20 -20 -18 -20 0 15
-20 -20 -18 -20 -20 -20 -20 -20 -20 -20 -20 -20 -20 -20 -20 -20 -20 -20 -20 -20 -20 -20 -20 -20 -20 -20 -20 -20 -20 -20 -20 -20 -20 -20 -20 -20 -20 -20 -20 -20 -20 -20 -20 -20 9
-20 -20 -20 7 -20 -20 -20 -20 -20 -20 -20 -20 -20 -20 -20 -20 -20 -20 -20 -20 -20 -20 -20 -20 -20 -20 -20 -20 -20 -20 -20 -20 -20 -20 -20 -18 -20 -20 -20 -20 -20 -20 -20 -1 -20
-20 -20 -10 -3 -20 -20 -20 -20 -20 -20 -20 -20 -20 -20 -20 -20 -20 -20 -20 -20 -20 -20 -20 -20 -20 -20 -20 -20 -20 -20 -20 -20 -20 -20 -20 -20 -20 -20 -20 -20 -20 -20 -20 -20 -14
-20 -20 -9 -20 -20 -20 -20 -20 -20 -20 -20 -20 -20 -20 -20 -20 -20 -20 -20 -20 -20 -20 -20 -20 -20 -20 -20 -20 -20 -20 -20 -20 -20 -20 -20 -20 -20 -20 -20 -20 -20 -20 -20 -20 -20
-20 -20 -20 -20 -20 -20 -20 -20 -20 -20 -20 -20 -20 -20 -20 -20 -20 -20 -20 -20 -20 -20 -20 -20 -20 -20 -20 -20 -20 -20 -20 -20 -20 -20 -20 -20 -20 -20 -20 -20 -20 -20 -20 -20 -20
-20 -20 -20 -20 -20 -20 -20 -20 -20 -20 -20 -20 -20 -20 -20 -20 -20 -20 -20 -20 -20 -20 -20 -20 -20 -20 -20 -20 -20 -20 -20 -20 -20 -20 -20 -20 -20 -20 -20 -20 -20 -20 -20 -20 -20
-20 -20 -20 -20 -20 -20 -20 -20 -20 -20 -20 -20 -20 -20 -20 -20 -20 -20 -20 -20 -20 -20 -20 -20 -20 -20 -20 -20 -20 -20 -20 -20 -20 -20 -20 -20 -20 -20 -20 -20 -20 -20 -20 -20 -20
-20 -20 -20 -20 -20 -20 -20 -20 -20 -20 -20 -20 -20 -20 -20 -20 -20 -20 -20 -20 -20 -20 -20 -20 -20 -20 -20 -20 -20 -20 -20 -20 -20 -20 -20 -20 -20 -20 -20 -20 -20 -20 -20 -20 -20
-20 -20 -20 -20 -20 -20 -20 -20 -20 -20 -20 -20 -20 -20 -20 -20 -20 -20 -20 -20 -20 -20 -20 -20 -20 -20 -20 -20 -20 -20 -20 -20 -20 -20 -20 -20 -20 -20 -20 -20 -20 -20 -20 -20 -20
-20 -20 -20 -20 -20 -20 -20 -20 -20 -20 -20 -20 -20 -20 -20 -20 -20 -20 -20 -20 -20 -20 -20 -20 -20 -20 -20 -20 -20 -20 -20 -20 -20 -20 -20 -20 -20 -20 -20 -20 -20 -20 -20 -20 -20
-20 -20 -20 -20 -20 -20 -20 -20 -20 -20 -20 -20 -20 -20 -20 -20 -20 -20 -20 -20 -20 -20 -20 -20 -20 -20 -20 -20 -20 -20 -20 -20 -20 -20 -20 -20 -20 -20 -20 -20 -20 -20 -20 -20 -20
-20 -20 -20 -20 -20 -20 -20 -20 -20 -20 -20 -20 -20 -20 -20 -20 -20 -20 -20 -20 -20 -20 -20 -20 -20 -20 -20 -20 -20 -20 -20 -20 -20 -20 -20 -20 -20 -20 -20 -20 -20 -20 -20 -20 -20
-20 -20 -20 -20 -20 -20 -20 -20 -20 -20 -20 -20 -20 -20 -20 -20 -20 -20 -20 -20 -20 -20 -20 -20 -20 -20 -20 -20 -20 -20 -20 -20 -20 -20 -20 -20 -20 -20 -20 -20 -20 -20 -20 -20 -20
-20 -20 -20 -20 -20 -20 -20 -20 -20 -20 -20 -20 -20 -20 -20 -20 -20 -20 -20 -20 -20 -20 -20 -20 -20 -20 -20 -20 -20 -20 -20 -20 -20 -20 -20 -20 -20 -20 -20 -20 -20 -20 -20 -20 -20
Wind_Speed
12 12 13 13 13 13 12 12 12 11 11 12 12 12 12 13 13 0 5 8 4 7 5 5 1 2 3 4 3 1 4 2 3 2 1 5 3 3 5 7 1 3 4 6 12
13 13 13 13 13 12 13 13 12 12 12 13 13 12 12 12 2 4 10 6 6 9 4 7 4 5 2 3 3 3 3 3 3 2 2 6 2 6 3 3 4 6 10 12 11
14 14 13 13 13 13 12 12 12 12 13 13 13 12 11 7 1 5 4 8 7 6 2 2 4 4 3 3 2 1 2 6 6 2 5 6 5 3 9 3 4 10 12 11 10
15 14 14 14 14 14 13 13 13 13 13 12 12 12 12 1 3 1 4 9 8 4 2 4 3 4 3 3 3 3 2 5 10 6 3 4 7 3 7 2 6 8 14 10 10
16 16 15 15 15 14 14 14 13 14 13 12 11 10 3 1 6 2 8 9 5 4 3 3 2 2 4 4 4 3 2 4 9 7 1 6 3 2 6 10 12 10 10 9 8
15 15 15 15 15 15 14 15 14 14 12 10 9 8 2 1 2 7 9 6 4 4 3 2 1 3 6 4 3 3 5 7 4 4 2 4 4 7 5 12 13 10 8 6 7
18 17 16 17 16 16 16 15 15 14 10 7 6 3 1 5 3 6 7 6 5 4 4 2 1 3 5 5 3 8 6 3 3 2 3 1 3 2 7 11 13 9 7 5 5
19 18 18 17 17 17 17 18 16 12 7 5 3 1 5 2 4 5 3 2 3 3 1 2 3 6 5 5 5 4 4 2 2 5 2 3 2 5 6 11 10 10 8 9 7
19 19 19 18 18 17 19 19 12 4 3 4 0 2 7 2 2 4 5 3 4 2 3 2 3 4 4 5 4 4 2 3 2 7 3 2 3 4 3 12 13 12 9 11 7
18 20 19 18 17 17 19 11 9 8 2 3 4 2 3 2 3 3 2 2 1 2 3 6 5 4 3 3 4 5 3 2 5 8 5 4 6 2 1 14 13 12 11 8 8
19 19 20 19 17 14 9 1 4 3 2 5 3 3 4 5 1 3 4 4 3 8 3 4 6 6 10 7 4 5 4 3 3 5 6 8 5 7 6 3 11 11 11 13 12
20 20 20 19 17 12 1 3 3 3 8 6 4 6 4 1 2 2 4 4 2 2 2 6 2 9 4 4 2 2 1 4 2 6 6 4 11 6 9 7 9 11 14 13 9
20 19 22 20 17 3 1 3 3 2 1 7 5 4 4 8 4 6 6 3 4 4 3 6 4 4 5 4 3 3 5 4 3 4 2 3 5 5 6 5 7 6 10 16 18
20 19 21 24 2 2 4 1 4 5 5 6 3 5 4 4 1 4 4 6 1 7 6 4 4 5 4 6 7 5 9 6 10 5 2 3 5 5 4 5 6 10 8 11 14
20 18 17 8 3 1 1 6 1 4 3 1 3 2 1 7 3 1 3 3 4 5 5 7 3 3 3 9 8 9 5 7 4 4 3 1 3 7 1 4 9 9 10 10 10
23 18 12 2 1 7 6 6 4 7 3 2 4 3 4 1 1 3 3 3 2 3 1 7 2 4 7 1 5 6 8 9 6 3 3 4 5 8 3 6 3 6 10 10 8
25 20 5 1 3 4 5 4 6 4 3 2 5 3 3 3 3 5 5 3 4 3 3 5 3 4 3 5 4 7 7 4 4 3 6 2 3 10 5 3 4 5 6 11 14
28 16 6 4 4 4 3 6 2 4 5 3 2 2 5 7 3 2 5 2 4 3 3 3 5 2 3 4 9 4 8 8 6 5 5 1 5 6 2 3 4 4 6 8 15
23 2 1 4 8 3 7 3 7 6 2 4 3 4 4 3 3 3 5 6 7 10 7 4 4 6 3 1 5 5 3 4 8 4 3 3 6 7 2 2 3 6 5 4 12
5 4 4 2 6 4 6 6 4 4 3 3 1 2 3 2 5 6 5 4 4 9 2 3 2 3 4 2 6 3 5 3 3 5 4 4 4 6 4 6 5 4 5 4 5
3 5 4 3 1 6 4 7 5 6 2 2 1 2 3 3 6 5 5 3 4 3 3 4 4 6 5 6 3 4 3 7 6 3 6 2 7 7 7 5 5 7 6 6 6
4 4 3 3 5 1 3 5 4 2 3 5 2 6 5 4 4 5 8 7 6 8 7 2 6 2 3 4 1 1 4 5 6 3 1 3 8 2 4 5 5 7 7 6 7
3 4 5 3 3 2 5 4 3 3 3 1 4 5 3 5 3 2 2 1 6 6 9 8 3 3 9 7 3 4 2 4 4 3 5 6 8 1 4 3 3 5 7 7 6
3 5 5 5 1 4 3 4 4 4 4 4 4 2 2 3 1 5 4 1 2 3 9 9 4 8 8 7 4 2 1 4 4 3 3 7 6 0 2 3 5 6 6 6 4
3 2 2 4 4 4 2 3 2 4 4 4 2 2 2 3 2 3 2 2 5 5 5 5 4 4 3 2 2 1 3 4 6 4 5 4 6 5 3 3 4 5 5 5 2
1 2 4 3 4 4 1 0 1 5 2 6 0 6 3 4 7 8 5 3 6 1 3 4 3 2 2 1 5 3 4 5 5 3 7 6 9 7 3 4 1 3 3 4 0
2 2 2 3 3 2 3 1 2 6 6 8 4 5 4 13 10 4 3 4 5 9 4 4 7 4 5 2 1 5 7 6 5 6 6 6 7 4 4 4 2 3 1 3 3
Wind_Direction
357 354 351 349 348 347 344 343 340 337 332 326 322 326 327 329 318 193 250 219 142 130 137 117 341 122 55 68 82 183 67 109 105 123 47 353 69 164 102 139 354 148 116 130 122
355 353 350 346 344 343 340 337 336 334 329 321 320 324 327 333 316 252 248 233 207 152 132 151 150 134 47 78 45 63 99 150 90 110 307 315 78 157 113 149 61 76 90 113 123
354 352 349 344 341 339 335 332 329 330 325 320 319 322 322 328 290 246 216 200 185 167 109 105 126 152 108 103 127 104 151 135 165 177 357 315 141 146 131 249 212 163 143 135 131
352 350 347 343 339 334 331 327 325 326 321 316 317 323 319 266 132 272 205 170 158 141 99 139 140 112 112 144 158 103 55 136 142 129 298 6 312 108 161 241 138 151 143 140 144
349 346 344 340 335 331 327 323 322 321 317 312 314 324 338 280 254 66 110 134 113 116 181 156 145 150 101 131 130 99 128 74 152 159 48 301 304 296 188 107 114 129 145 157 147
349 345 342 335 332 330 324 320 318 317 311 307 311 320 320 99 80 132 116 119 147 152 200 185 106 108 102 94 42 85 86 106 84 108 287 32 298 166 136 131 132 149 167 171 173
345 341 337 333 330 328 323 316 311 307 301 295 302 309 14 218 68 140 137 169 177 180 156 212 134 99 126 98 99 125 78 79 134 195 78 218 338 62 125 140 142 165 172 192 198
342 341 336 334 331 328 322 315 307 295 283 266 269 290 244 281 118 148 173 140 186 246 294 124 98 99 82 130 47 62 70 94 162 149 155 189 193 135 132 137 166 183 182 202 216
339 338 337 335 332 330 322 316 300 244 195 170 80 28 281 347 208 205 158 166 154 216 288 238 98 92 80 93 56 18 156 168 140 197 112 219 167 198 154 169 193 192 193 198 208
331 335 336 333 333 333 323 315 102 117 166 200 255 2 276 293 234 164 192 135 174 122 64 50 56 80 66 98 202 179 190 199 188 198 184 175 258 255 232 175 208 185 198 202 217
330 333 336 333 332 332 340 94 15 358 144 219 218 254 283 281 295 201 139 110 78 51 105 359 84 191 210 190 100 128 141 186 217 176 148 204 246 204 214 227 200 195 194 204 213
330 332 336 332 329 321 173 80 125 142 313 234 245 269 266 224 67 308 112 104 106 131 91 30 203 230 217 266 276 273 240 224 142 156 166 197 241 225 178 219 200 188 194 209 215
331 331 337 331 325 116 292 224 120 69 131 297 199 194 197 140 197 236 123 131 123 131 169 158 226 131 162 235 221 224 195 200 132 156 218 118 277 202 217 194 210 231 195 195 205
331 331 337 330 344 324 261 177 304 182 58 283 276 274 110 126 258 177 156 135 91 187 160 232 255 180 183 221 162 285 191 147 128 113 189 142 282 261 241 232 209 207 192 191 201
328 329 330 337 271 199 106 324 219 66 59 192 230 97 104 135 149 227 212 73 176 186 109 256 223 180 160 223 150 228 95 126 124 104 98 38 71 266 107 245 239 218 211 201 194
325 327 325 145 196 246 323 323 51 43 261 283 188 177 130 127 155 112 126 60 178 175 298 235 255 197 212 114 140 133 69 53 53 77 10 235 148 282 211 206 255 222 203 205 193
324 321 274 215 223 316 314 56 40 132 332 244 227 173 174 213 199 155 160 156 180 105 307 332 241 272 164 82 55 73 63 17 18 18 223 297 119 240 246 241 221 236 222 200 203
326 321 196 226 300 347 58 52 182 243 242 304 200 90 181 168 233 140 119 195 224 125 119 154 348 256 142 191 175 179 144 153 187 190 243 35 235 256 209 310 275 252 241 215 203
322 331 237 260 207 342 78 101 209 209 268 313 306 158 236 237 169 135 189 196 211 181 174 140 298 316 31 141 113 181 169 164 103 9 76 239 289 309 230 224 262 266 308 239 198
331 339 290 48 151 72 84 238 225 216 313 19 290 171 207 200 156 160 179 202 235 189 130 167 55 346 303 41 44 131 150 72 5 140 215 283 276 239 246 229 257 273 306 301 210
24 14 312 27 77 53 164 232 256 241 346 38 288 305 266 176 159 163 195 265 195 79 138 124 96 300 33 19 303 348 58 55 112 112 157 183 261 215 212 225 254 267 285 269 250
0 350 308 75 56 38 174 209 254 254 263 258 192 220 221 193 138 170 196 211 165 144 149 130 120 77 221 237 176 252 133 127 118 225 92 141 270 238 240 258 250 276 298 301 261
359 274 313 84 147 270 291 282 264 290 262 228 257 229 164 200 119 186 173 248 146 140 167 181 44 63 347 346 5 40 49 94 100 87 196 141 259 324 358 293 321 313 319 315 311
21 351 323 37 30 117 16 276 307 295 265 232 263 188 95 218 92 185 206 74 169 96 87 90 118 151 182 205 167 253 192 109 101 114 182 230 278 291 335 3 334 327 322 318 348
47 296 176 324 343 346 267 305 308 332 328 291 273 14 235 236 139 206 179 109 44 164 64 108 143 153 222 255 169 242 235 189 194 191 183 268 231 264 223 252 291 282 317 330 330
54 31 352 280 311 317 56 142 286 337 267 294 215 343 339 194 196 205 154 144 178 180 75 6 158 108 173 108 51 303 279 233 223 224 252 248 271 214 217 205 252 300 324 307 221
326 335 113 278 334 339 242 320 312 338 269 254 338 356 291 238 200 250 140 119 174 146 135 106 134 117 239 98 121 302 229 193 208 207 187 209 237 180 215 222 206 237 286 301 310